Weather History for Crane Lake, MN

Change the Weather History Date:

Tuesday, February 25, 2014

  Actual Average Record
Temperature  
Mean Temperature 2 °F -  
Max Temperature 28 °F 26 °F 42 °F (1997)
Min Temperature -25 °F 4 °F -27 °F (2003)
Degree Days  
Heating Degree Days 64    
Moisture  
Dew Point -18 °F    
Average Humidity 64    
Maximum Humidity 84    
Minimum Humidity 13    
Precipitation  
Precipitation 0.00 in - - ()
Sea Level Pressure  
Sea Level Pressure 30.16 in    
Wind  
Wind Speed 4 mph (WNW)    
Max Wind Speed 15 mph    
Max Gust Speed 22 mph    
Visibility 10 miles    
Events Snow    
Averages and records for this station are not official NWS values.
T = Trace of Precipitation, MM = Missing Value Source: NWS Daily Summary

Daily Weather History Graph

Daily Weather History Graph

Search for Another Location

Airport:

Trip Planner

Search our weather history database for the weather conditions in past years. The results will help you decide how hot, cold, wet, or windy it might be!

Date:

Astronomy

Feb. 25, 2014 Rise Set
Actual Time 6:58 AM CST 5:47 PM CST
Civil Twilight 6:27 AM CST 6:19 PM CST
Nautical Twilight 5:51 AM CST 6:55 PM CST
Astronomical Twilight 5:15 AM CST 7:31 PM CST
Moon 4:07 AM CST (2/25) 1:41 PM CST (2/25)
Length of Visible Light 11h 52m
Length of Day
10h 49m
Waning Crescent, 18% of the Moon is Illuminated
Feb 25
Waning Crescent
Mar 1
New
Mar 8
First Quarter
Mar 16
Full
Mar 23
Last Quarter

Hourly Weather History & Observations

Time (CST) Temp. Windchill Dew Point Humidity Pressure Visibility Wind Dir Wind Speed Gust Speed Precip Events Conditions
12:11 AM -7.6 °F -18.8 °F -14.8 °F 71% 30.18 in 10.0 mi WNW 4.6 mph - N/A   Scattered Clouds
12:31 AM -9.4 °F -18.6 °F -14.8 °F 77% 30.18 in 10.0 mi West 3.5 mph - N/A   Clear
12:51 AM -9.4 °F -18.6 °F -16.6 °F 71% 30.18 in 10.0 mi West 3.5 mph - N/A   Mostly Cloudy
1:11 AM -9.4 °F - -16.6 °F 71% 30.18 in 10.0 mi Calm Calm - N/A   Mostly Cloudy
1:31 AM -11.2 °F - -16.6 °F 77% 30.18 in 10.0 mi Calm Calm - N/A   Mostly Cloudy
1:51 AM -11.2 °F -23.0 °F -16.6 °F 77% 30.18 in 7.0 mi West 4.6 mph - N/A   Overcast
2:11 AM -9.4 °F -18.6 °F -16.6 °F 71% 30.18 in 5.0 mi WSW 3.5 mph - N/A   Haze
2:31 AM -9.4 °F - -16.6 °F 71% 30.18 in 5.0 mi Calm Calm - N/A   Haze
2:51 AM -11.2 °F - -18.4 °F 70% 30.17 in 7.0 mi Calm Calm - N/A   Mostly Cloudy
3:11 AM -13.0 °F - -18.4 °F 77% 30.17 in 10.0 mi Calm Calm - N/A   Scattered Clouds
3:31 AM -14.8 °F - -18.4 °F 84% 30.16 in 7.0 mi Calm Calm - N/A   Mostly Cloudy
3:51 AM -14.8 °F - -20.2 °F 77% 30.16 in 10.0 mi Calm Calm - N/A   Mostly Cloudy
4:11 AM -14.8 °F - -20.2 °F 77% 30.16 in 7.0 mi Calm Calm - N/A   Overcast
4:31 AM -16.6 °F - -23.8 °F 70% 30.15 in 10.0 mi Calm Calm - N/A   Scattered Clouds
4:51 AM -20.2 °F - -25.6 °F 76% 30.15 in 10.0 mi Calm Calm - N/A   Mostly Cloudy
5:11 AM -22.0 °F - -27.4 °F 76% 30.15 in 10.0 mi Calm Calm - N/A   Scattered Clouds
5:31 AM -22.0 °F - -27.4 °F 76% 30.16 in 10.0 mi Calm Calm - N/A Snow Light Snow
5:51 AM -23.8 °F - -29.2 °F 76% 30.15 in 10.0 mi Calm Calm - N/A   Clear
6:11 AM -25.6 °F - -31.0 °F 76% 30.15 in 10.0 mi Calm Calm - N/A   Clear
6:31 AM -25.6 °F - -31.0 °F 76% 30.15 in 10.0 mi Calm Calm - N/A   Mostly Cloudy
6:51 AM -25.6 °F - -31.0 °F 76% 30.15 in 7.0 mi Calm Calm - N/A Snow Light Snow
7:11 AM -25.6 °F - -31.0 °F 76% 30.15 in 10.0 mi Calm Calm - N/A Snow Light Snow
7:31 AM -25.6 °F - -32.8 °F 69% 30.15 in 10.0 mi Calm Calm - N/A   Clear
7:51 AM -25.6 °F - -31.0 °F 76% 30.15 in 10.0 mi Calm Calm - N/A Snow Light Snow
8:11 AM -22.0 °F - -27.4 °F 76% 30.15 in 10.0 mi Calm Calm - N/A   Clear
8:31 AM -16.6 °F - -22.0 °F 76% 30.15 in 10.0 mi Calm Calm - N/A   Clear
8:51 AM 28.4 °F 24.6 °F -16.6 °F 13% 30.15 in 10.0 mi West 3.5 mph - N/A   Clear
9:12 AM -7.6 °F -18.8 °F -11.2 °F 84% 30.15 in 10.0 mi West 4.6 mph - N/A   Clear
9:31 AM -5.8 °F -14.5 °F -11.2 °F 77% 30.14 in 10.0 mi West 3.5 mph - N/A   Scattered Clouds
9:51 AM -0.4 °F -8.3 °F -7.6 °F 72% 30.14 in 10.0 mi West 3.5 mph - N/A   Scattered Clouds
10:11 AM -2.2 °F -10.4 °F -9.4 °F 71% 30.14 in 7.0 mi West 3.5 mph - N/A   Mostly Cloudy
10:31 AM 1.4 °F -9.9 °F -7.6 °F 66% 30.15 in 10.0 mi West 5.8 mph - N/A   Mostly Cloudy
10:51 AM 1.4 °F -11.3 °F -9.4 °F 61% 30.15 in 10.0 mi WNW 6.9 mph - N/A   Scattered Clouds
11:11 AM 1.4 °F -12.5 °F -7.6 °F 66% 30.15 in 10.0 mi NW 8.1 mph - N/A   Scattered Clouds
11:31 AM 1.4 °F -13.5 °F -9.4 °F 61% 30.15 in 10.0 mi NW 9.2 mph 16.1 mph N/A   Scattered Clouds
11:51 AM 3.2 °F -10.3 °F -9.4 °F 56% 30.15 in 10.0 mi WNW 8.1 mph 18.4 mph N/A   Scattered Clouds
12:11 PM 3.2 °F -9.1 °F -9.4 °F 56% 30.15 in 10.0 mi WNW 6.9 mph - N/A   Scattered Clouds
12:31 PM 3.2 °F -12.2 °F -9.4 °F 56% 30.15 in 10.0 mi NW 10.4 mph 18.4 mph N/A   Scattered Clouds
12:51 PM 5.0 °F -10.0 °F -9.4 °F 52% 30.15 in 10.0 mi NNW 10.4 mph - N/A   Mostly Cloudy
1:11 PM 3.2 °F - -9.4 °F 56% 30.14 in 10.0 mi North - - N/A   Overcast
1:31 PM 1.4 °F -16.1 °F -11.2 °F 56% 30.14 in 10.0 mi NW 12.7 mph 19.6 mph N/A   Overcast
1:51 PM 1.4 °F -13.5 °F -11.2 °F 56% 30.14 in 7.0 mi NW 9.2 mph 19.6 mph N/A   Overcast
2:11 PM 1.4 °F -12.5 °F -9.4 °F 61% 30.14 in 7.0 mi NW 8.1 mph 16.1 mph N/A   Overcast
2:31 PM 1.4 °F -16.1 °F -9.4 °F 61% 30.14 in 10.0 mi NNW 12.7 mph 20.7 mph N/A   Overcast
2:51 PM 3.2 °F -10.3 °F -9.4 °F 56% 30.14 in 7.0 mi NW 8.1 mph 17.3 mph N/A   Overcast
3:11 PM 5.0 °F -13.0 °F -9.4 °F 52% 30.14 in 10.0 mi NNW 15.0 mph 18.4 mph N/A   Overcast
3:31 PM 3.2 °F -11.3 °F -11.2 °F 51% 30.14 in 10.0 mi NW 9.2 mph - N/A   Mostly Cloudy
3:51 PM 3.2 °F -15.3 °F -14.8 °F 43% 30.15 in 10.0 mi NNW 15.0 mph 21.9 mph N/A   Mostly Cloudy
4:11 PM 1.4 °F -15.3 °F -14.8 °F 47% 30.15 in 10.0 mi NNW 11.5 mph 19.6 mph N/A   Scattered Clouds
4:31 PM 1.4 °F -15.3 °F -14.8 °F 47% 30.16 in 10.0 mi NNW 11.5 mph 19.6 mph N/A   Clear
4:51 PM -0.4 °F -19.2 °F -16.6 °F 46% 30.16 in 10.0 mi NW 13.8 mph 21.9 mph N/A   Clear
5:11 PM -0.4 °F -15.7 °F -16.6 °F 46% 30.17 in 10.0 mi NW 9.2 mph 17.3 mph N/A   Clear
5:31 PM -4.0 °F -12.4 °F -18.4 °F 50% 30.17 in 10.0 mi NW 3.5 mph - N/A   Clear
5:51 PM -5.8 °F -16.7 °F -18.4 °F 55% 30.17 in 10.0 mi NW 4.6 mph - N/A   Clear
6:11 PM -5.8 °F -14.5 °F -18.4 °F 55% 30.18 in 10.0 mi West 3.5 mph - N/A   Clear
6:31 PM -5.8 °F -18.4 °F -18.4 °F 55% 30.18 in 10.0 mi West 5.8 mph - N/A   Clear
6:51 PM -7.6 °F -18.8 °F -18.4 °F 59% 30.18 in 10.0 mi WNW 4.6 mph - N/A   Clear
7:11 PM -7.6 °F -18.8 °F -18.4 °F 59% 30.18 in 10.0 mi West 4.6 mph - N/A   Clear
7:31 PM -7.6 °F - -18.4 °F 59% 30.17 in 10.0 mi Calm Calm - N/A   Clear
7:51 PM -9.4 °F -18.6 °F -18.4 °F 65% 30.17 in 10.0 mi WNW 3.5 mph - N/A   Clear
8:11 PM -9.4 °F -18.6 °F -18.4 °F 65% 30.17 in 10.0 mi West 3.5 mph - N/A   Clear
8:31 PM -9.4 °F -18.6 °F -18.4 °F 65% 30.17 in 10.0 mi West 3.5 mph - N/A   Clear
8:51 PM -9.4 °F -20.9 °F -20.2 °F 59% 30.17 in 10.0 mi West 4.6 mph - N/A   Clear
9:11 PM -9.4 °F -18.6 °F -20.2 °F 59% 30.17 in 10.0 mi WNW 3.5 mph - N/A   Clear
9:31 PM -9.4 °F -20.9 °F -20.2 °F 59% 30.17 in 10.0 mi West 4.6 mph - N/A   Clear
9:51 PM -9.4 °F -18.6 °F -20.2 °F 59% 30.16 in 10.0 mi NW 3.5 mph - N/A   Clear
10:11 PM -11.2 °F -20.6 °F -20.2 °F 64% 30.16 in 10.0 mi NW 3.5 mph - N/A   Clear
10:31 PM -11.2 °F -20.6 °F -20.2 °F 64% 30.15 in 10.0 mi WSW 3.5 mph - N/A   Clear
10:51 PM -11.2 °F -20.6 °F -20.2 °F 64% 30.14 in 10.0 mi West 3.5 mph - N/A   Clear
11:11 PM -11.2 °F -20.6 °F -20.2 °F 64% 30.13 in 10.0 mi WSW 3.5 mph - N/A   Clear
11:31 PM -11.2 °F - -20.2 °F 64% 30.13 in 10.0 mi Calm Calm - N/A   Clear
11:51 PM -11.2 °F -20.6 °F -20.2 °F 64% 30.11 in 10.0 mi SW 3.5 mph - N/A   Scattered Clouds